GEOSCAN 1 (RS92S1)

Last updated on Sun Apr 12 2026 00:03:16 GMT+0000 (Coordinated Universal Time)

1 64880U 25155E 26101.54127551 .00011305 00000+0 39900-3 0 9997 2 64880 97.4504 70.0201 0009742 62.7911 297.4320 15.29359342 70585
UTC large
Height (km)
Speed (km/s)
/
Latitude / Longitude
Inclination (degrees)
Orbital Period (minutes)
Azimuth
Elevation
Range (km)
Doppler Factor

Next 0 passes for location: London (51.5072 / 0.1276)

Sorry there are no passes over London.
GEOSCAN 1 (RS92S1)